Meteo Giornale » Osservazioni meteo Italia » Pisa-S Giusto

ore: 06:15 - Osservazioni Meteo Pisa-S Giusto
Lat. 43° 41' N Lon. 10° 23' E Alt. 2 metri s.l.m.

nuvoloso Europe/Rome

23 °C

Nuvoloso

Temp. 24 Ore

22 °C

33 °C

Sud/Sud-Est

14.8 Km/h

Dew point 21 °C

Umidità 88 %

Visibilità  10 Km

Il sole sorge alle ore 06:00

Il sole tramonta alle ore 20:49

Data e Ora Cielo e Fenomeni T °C DP °C Um. % Pres. hPa Vis. km Vento km/h
Oggi h: 06:15 nuvoloso Nuvoloso 23 21 88 1015 10 S/SE 14.8
Oggi h: 05:45 nuvoloso Nuvoloso 23 22 94 1015 10 S 9.3
Oggi h: 05:15 nuvoloso Nuvoloso 23 23 100 1015 10 S 11.1
Oggi h: 04:15 sereno Sereno 24 23 94 1015 10 SE 9.3
Oggi h: 03:45 sereno Sereno 24 23 94 1015 10 S/SE 9.3
Oggi h: 03:15 molto_nuvoloso Molto Nuvoloso 24 23 94 1014 10 E 13
Oggi h: 02:45 coperto_pioggia Pioggia Debole 24 22 88 1015 10 N 5.5
Oggi h: 02:15 poco_nuvoloso Poco Nuvoloso 24 22 88 1014 10 SE 11.1
Oggi h: 01:45 sereno Sereno 24 22 88 1014 10 E/SE 7.4
Oggi h: 01:15 sereno Sereno 25 22 83 1014 10 E/SE 7.4
Oggi h: 00:45 sereno Sereno 25 22 83 1014 10 E/SE 7.4
Oggi h: 00:15 sereno Sereno 25 22 83 1014 10 E 9.3
Ieri h: 23:45 sereno Sereno 26 23 83 1014 10 E/NE 9.3
Ieri h: 23:15 sereno Sereno 26 23 83 1014 10 N 5.5
Ieri h: 22:45 poco_nuvoloso Poco Nuvoloso 25 23 88 1014 10 E/NE 7.4
Ieri h: 22:15 poco_nuvoloso Poco Nuvoloso 25 24 94 1014 10 E/SE 9.3
Ieri h: 21:45 poco_nuvoloso Poco Nuvoloso 26 23 83 1013 10 E 9.3
Ieri h: 21:15 poco_nuvoloso Poco Nuvoloso 26 23 83 1013 10 SE 11.1
Ieri h: 20:45 poco_nuvoloso Poco Nuvoloso 27 24 83 1013 10 SE 13
Ieri h: 20:15 poco_nuvoloso Poco Nuvoloso 27 24 83 1013 10 S/SE 13
Ieri h: 19:45 nuvoloso Nuvoloso 27 23 78 1013 10 S 11.1
Ieri h: 19:15 poco_nuvoloso Poco Nuvoloso 27 23 78 1013 10 S/SO 16.7
Ieri h: 18:45 poco_nuvoloso Poco Nuvoloso 28 22 69 1013 10 S/SO 22.2
Ieri h: 18:15 poco_nuvoloso Poco Nuvoloso 29 22 66 1012 10 S/SO 27.8
Ieri h: 17:45 poco_nuvoloso Poco Nuvoloso 30 21 58 1012 10 S/SO 25.9
Ieri h: 17:15 sereno Sereno 30 22 62 1012 10 S/SO 25.9
Ieri h: 16:45 sereno Sereno 31 21 55 1012 10 S 24
Ieri h: 16:15 poco_nuvoloso Poco Nuvoloso 31 20 52 1012 10 S 25.9
Ieri h: 15:45 poco_nuvoloso Poco Nuvoloso 33 20 46 1011 10 S 18.5
Ieri h: 15:15 poco_nuvoloso Poco Nuvoloso 32 20 49 1012 10 S 14.8
Ieri h: 14:45 poco_nuvoloso Poco Nuvoloso 32 21 52 1012 10 E/SE 11.1
Ieri h: 14:15 poco_nuvoloso Poco Nuvoloso 31 21 55 1012 10 S/SO 18.5
Ieri h: 13:45 nuvoloso Nuvoloso 31 21 55 1012 10 S/SO 20.3
Ieri h: 13:15 nuvoloso Nuvoloso 30 21 58 1012 10 N 5.5
Ieri h: 12:45 nuvoloso Nuvoloso 31 21 55 1012 10 S/SE 11.1
Ieri h: 12:15 nuvoloso Nuvoloso 30 21 58 1012 10 N 5.5
Ieri h: 11:45 poco_nuvoloso Poco Nuvoloso 30 20 55 1012 10 SE 14.8
Ieri h: 11:15 sereno Sereno 29 20 58 1012 10 E 9.3
Ieri h: 10:45 sereno Sereno 28 21 65 1012 10 E/NE 9.3
Ieri h: 10:15 poco_nuvoloso Poco Nuvoloso 28 20 61 1012 10 N 5.5
Ieri h: 09:45 poco_nuvoloso Poco Nuvoloso 27 20 65 1012 10 E 7.4
Ieri h: 09:15 poco_nuvoloso Poco Nuvoloso 26 20 69 1012 10 E 9.3
Ieri h: 08:45 poco_nuvoloso Poco Nuvoloso 25 20 73 1012 10 S/SE 11.1
Ieri h: 08:15 poco_nuvoloso Poco Nuvoloso 25 21 78 1011 10 S/SE 11.1
Ieri h: 07:45 sereno Sereno 24 20 78 1011 10 SE 7.4
Ieri h: 07:15 sereno Sereno 22 21 94 1010 10 S 7.4
Ieri h: 06:45 sereno Sereno 22 21 94 1010 10 S/SE 9.3